When you browse on this site, cookies collect data to enhance your experience and personalize the content and advertising you see.
Visit our Privacy Policy to learn more. By continuing to use the site, you agree to this use of cookies and data.
  • In Spain
  • List of Countries
  • For 7 days
  • Water Temperature
  • Satellite Maps
  • Weather Map
  • Weather Widgets
  • user-avatar
    Login

    Hourly Weather Perth

    Today, 17 February, Sunday

    Time Temperature Precipitation Wind Pressure Humidity
    00:00 +24°C° 0 mm 6 mps 761 mmHg 55%
    01:00 +23°C° 0 mm 6 mps 761 mmHg 59%
    02:00 +22°C° 0 mm 5 mps 761 mmHg 64%
    03:00 +21°C° 0 mm 5 mps 761 mmHg 65%
    04:00 +20°C° 0 mm 5 mps 761 mmHg 67%
    05:00 +19°C° 0 mm 5 mps 761 mmHg 68%
    06:00 +20°C° 0 mm 5 mps 761 mmHg 65%
    07:00 +20°C° 0 mm 5 mps 762 mmHg 61%
    08:00 +21°C° 0 mm 4 mps 762 mmHg 55%
    09:00 +23°C° 0 mm 4 mps 761 mmHg 49%
    10:00 +26°C° 0 mm 3 mps 761 mmHg 43%
    11:00 +28°C° 0 mm 3 mps 761 mmHg 37%
    12:00 +30°C° 0 mm 3 mps 760 mmHg 34%
    13:00 +31°C° 0 mm 3 mps 759 mmHg 30%
    14:00 +33°C° 0 mm 3 mps 759 mmHg 29%
    15:00 +33°C° 0 mm 3 mps 759 mmHg 29%
    16:00 +33°C° 0 mm 3 mps 758 mmHg 29%
    17:00 +32°C° 0 mm 4 mps 758 mmHg 29%
    18:00 +30°C° 0 mm 3 mps 758 mmHg 32%
    19:00 +28°C° 0 mm 3 mps 758 mmHg 35%
    20:00 +26°C° 0 mm 2 mps 758 mmHg 38%
    21:00 +26°C° 0 mm 3 mps 759 mmHg 36%
    22:00 +26°C° 0 mm 4 mps 759 mmHg 33%
    23:00 +26°C° 0 mm 5 mps 759 mmHg 31%

    Tomorrow, 18 February, Monday

    Time Temperature Precipitation Wind Pressure Humidity
    00:00 +25°C° 0 mm 5 mps 759 mmHg 38%
    01:00 +23°C° 0 mm 6 mps 759 mmHg 44%
    02:00 +22°C° 0 mm 6 mps 759 mmHg 51%
    03:00 +21°C° 0 mm 6 mps 759 mmHg 54%
    04:00 +20°C° 0 mm 6 mps 759 mmHg 57%
    05:00 +20°C° 0 mm 6 mps 759 mmHg 60%
    06:00 +20°C° 0 mm 6 mps 759 mmHg 58%
    07:00 +21°C° 0 mm 6 mps 759 mmHg 57%
    08:00 +21°C° 0 mm 6 mps 759 mmHg 55%
    09:00 +25°C° 0 mm 5 mps 759 mmHg 49%
    10:00 +28°C° 0 mm 4 mps 759 mmHg 42%
    11:00 +30°C° 0 mm 3 mps 759 mmHg 36%
    12:00 +33°C° 0 mm 3 mps 758 mmHg 33%
    13:00 +35°C° 0 mm 2 mps 758 mmHg 30%
    14:00 +37°C° 0 mm 2 mps 757 mmHg 26%
    15:00 +35°C° 0 mm 3 mps 757 mmHg 28%
    16:00 +34°C° 0 mm 4 mps 756 mmHg 29%
    17:00 +33°C° 0 mm 5 mps 756 mmHg 31%
    18:00 +32°C° 0 mm 5 mps 756 mmHg 34%
    19:00 +29°C° 0 mm 5 mps 756 mmHg 37%
    20:00 +27°C° 0 mm 5 mps 756 mmHg 40%
    21:00 +26°C° 0 mm 4 mps 757 mmHg 42%
    22:00 +25°C° 0 mm 3 mps 757 mmHg 43%
    23:00 +25°C° 0 mm 3 mps 757 mmHg 45%

    Day after tomorrow, 19 February, Tuesday

    Time Temperature Precipitation Wind Pressure Humidity
    00:00 +25°C° 0 mm 3 mps 757 mmHg 45%
    01:00 +25°C° 0 mm 3 mps 757 mmHg 44%
    02:00 +25°C° 0 mm 4 mps 756 mmHg 43%
    03:00 +23°C° 0 mm 4 mps 756 mmHg 46%
    04:00 +23°C° 0 mm 4 mps 756 mmHg 48%
    05:00 +23°C° 0 mm 4 mps 756 mmHg 51%
    06:00 +23°C° 0 mm 4 mps 756 mmHg 49%
    07:00 +25°C° 0 mm 3 mps 757 mmHg 47%
    08:00 +26°C° 0 mm 3 mps 757 mmHg 45%
    09:00 +29°C° 0 mm 2 mps 757 mmHg 39%
    10:00 +32°C° 0 mm 2 mps 756 mmHg 33%
    11:00 +35°C° 0 mm 1 mps 756 mmHg 27%
    12:00 +37°C° 0 mm 2 mps 756 mmHg 27%
    13:00 +37°C° 0 mm 4 mps 755 mmHg 27%
    14:00 +37°C° 0 mm 5 mps 754 mmHg 27%
    15:00 +36°C° 0 mm 5 mps 754 mmHg 31%
    16:00 +34°C° 0 mm 6 mps 754 mmHg 35%
    17:00 +33°C° 0 mm 6 mps 754 mmHg 38%
    18:00 +30°C° 0 mm 5 mps 754 mmHg 45%
    19:00 +28°C° 0 mm 4 mps 754 mmHg 52%
    20:00 +26°C° 0 mm 3 mps 755 mmHg 59%
    21:00 +26°C° 0 mm 3 mps 755 mmHg 61%
    22:00 +25°C° 0 mm 3 mps 756 mmHg 63%
    23:00 +25°C° 0 mm 2 mps 757 mmHg 65%

    20 February, Wednesday

    Time Temperature Precipitation Wind Pressure Humidity
    00:00 +25°C° 0 mm 2 mps 756 mmHg 65%
    01:00 +24°C° 0 mm 2 mps 756 mmHg 64%
    02:00 +24°C° 0 mm 2 mps 756 mmHg 63%
    03:00 +24°C° 0 mm 2 mps 755 mmHg 65%
    04:00 +23°C° 0 mm 1 mps 755 mmHg 67%
    05:00 +23°C° 0 mm 1 mps 755 mmHg 69%
    06:00 +24°C° 0 mm 1 mps 756 mmHg 64%
    07:00 +25°C° 0 mm 1 mps 756 mmHg 60%
    08:00 +26°C° 0 mm 1 mps 756 mmHg 56%
    09:00 +28°C° 0 mm 2 mps 756 mmHg 50%
    10:00 +30°C° 0 mm 3 mps 756 mmHg 45%
    11:00 +33°C° 0 mm 3 mps 756 mmHg 39%
    12:00 +33°C° 0 mm 4 mps 755 mmHg 42%
    13:00 +32°C° 0 mm 5 mps 755 mmHg 44%
    14:00 +30°C° 0 mm 6 mps 755 mmHg 47%
    15:00 +29°C° 0 mm 6 mps 755 mmHg 53%
    16:00 +28°C° 0 mm 6 mps 755 mmHg 58%
    17:00 +26°C° 0 mm 5 mps 755 mmHg 64%
    18:00 +25°C° 0 mm 5 mps 756 mmHg 71%
    19:00 +23°C° 0 mm 4 mps 756 mmHg 78%
    20:00 +21°C° 0 mm 4 mps 757 mmHg 84%
    21:00 +21°C° 0 mm 4 mps 757 mmHg 84%
    22:00 +21°C° 0 mm 4 mps 757 mmHg 84%
    23:00 +21°C° 0 mm 4 mps 758 mmHg 84%

    21 February, Thursday

    Time Temperature Precipitation Wind Pressure Humidity
    00:00 +21°C° 0 mm 4 mps 757 mmHg 84%
    01:00 +21°C° 0 mm 4 mps 757 mmHg 83%
    02:00 +21°C° 0 mm 4 mps 757 mmHg 83%
    03:00 +21°C° 0.1 mm 4 mps 757 mmHg 82%
    04:00 +21°C° 0.1 mm 4 mps 757 mmHg 81%
    05:00 +21°C° 0.1 mm 4 mps 757 mmHg 81%
    06:00 +21°C° 0 mm 4 mps 758 mmHg 78%
    07:00 +22°C° 0 mm 4 mps 758 mmHg 76%
    08:00 +22°C° 0 mm 3 mps 759 mmHg 73%
    09:00 +23°C° 0 mm 4 mps 759 mmHg 66%
    10:00 +25°C° 0 mm 4 mps 759 mmHg 59%
    11:00 +27°C° 0 mm 4 mps 759 mmHg 52%
    12:00 +27°C° 0 mm 4 mps 759 mmHg 49%
    13:00 +28°C° 0 mm 5 mps 758 mmHg 46%
    14:00 +29°C° 0 mm 5 mps 758 mmHg 43%
    15:00 +28°C° 0 mm 5 mps 758 mmHg 46%
    16:00 +27°C° 0 mm 5 mps 758 mmHg 48%
    17:00 +27°C° 0 mm 5 mps 757 mmHg 51%
    18:00 +25°C° 0 mm 5 mps 758 mmHg 60%
    19:00 +23°C° 0 mm 4 mps 759 mmHg 69%
    20:00 +21°C° 0 mm 4 mps 759 mmHg 78%
    21:00 +21°C° 0 mm 3 mps 759 mmHg 82%
    22:00 +20°C° 0 mm 3 mps 759 mmHg 86%
    23:00 +20°C° 0 mm 3 mps 760 mmHg 89%

    22 February, Friday

    Time Temperature Precipitation Wind Pressure Humidity
    00:00 +20°C° 0 mm 2 mps 759 mmHg 90%
    01:00 +19°C° 0 mm 2 mps 759 mmHg 90%
    02:00 +19°C° 0 mm 2 mps 759 mmHg 91%
    03:00 +19°C° 0 mm 2 mps 759 mmHg 89%
    04:00 +19°C° 0 mm 2 mps 759 mmHg 88%
    05:00 +18°C° 0 mm 2 mps 759 mmHg 86%
    06:00 +20°C° 0 mm 2 mps 759 mmHg 77%
    07:00 +21°C° 0 mm 2 mps 759 mmHg 69%
    08:00 +23°C° 0 mm 2 mps 760 mmHg 60%
    09:00 +26°C° 0 mm 2 mps 759 mmHg 53%
    10:00 +28°C° 0 mm 2 mps 759 mmHg 45%
    11:00 +31°C° 0 mm 2 mps 759 mmHg 38%
    12:00 +31°C° 0 mm 3 mps 758 mmHg 37%
    13:00 +32°C° 0 mm 4 mps 758 mmHg 37%
    14:00 +33°C° 0 mm 5 mps 757 mmHg 37%
    15:00 +30°C° 0 mm 5 mps 757 mmHg 41%
    16:00 +29°C° 0 mm 5 mps 757 mmHg 46%
    17:00 +28°C° 0 mm 5 mps 757 mmHg 50%
    18:00 +26°C° 0 mm 5 mps 758 mmHg 59%
    19:00 +23°C° 0 mm 4 mps 758 mmHg 68%
    20:00 +22°C° 0 mm 4 mps 759 mmHg 76%
    21:00 +21°C° 0 mm 4 mps 759 mmHg 79%
    22:00 +20°C° 0 mm 4 mps 759 mmHg 82%
    23:00 +20°C° 0 mm 4 mps 759 mmHg 84%
    Show more